TUBIN
1 48900U 21059X   25279.43613179  .00296480  00000-0  19329-2 0  9992
2 48900  97.6741  99.4317 0002659 151.8349 208.3059 15.75035453238641
LEDSAT
1 49069U 21073D   25279.33446449  .00740071  25912-3  13631-2 0  9990
2 49069  97.3672   7.8260 0007049 290.4674  69.5847 16.01237272230093
CUTE
1 49263U 21088D   25279.17517942  .00029190  00000-0  46844-3 0  9994
2 49263  97.4415 359.2776 0006679 151.3169 208.8452 15.52992244222793
TeikyoSat 4
1 49396U 21102B   25279.46932138  .00002391  00000-0  15826-3 0  9998
2 49396  97.3994 313.5779 0014106  86.7634 273.5209 15.08188778214463
Z-Sat
1 49399U 21102E   25279.58251943  .00006250  00000-0  33183-3 0  9996
2 49399  97.3688 317.5498 0018967  54.8977 305.4031 15.15513653214991
KOSEN 1
1 49402U 21102H   25279.35073711  .00008292  00000-0  36411-3 0  9996
2 49402  97.3583 321.6778 0015830  29.0791 331.1323 15.22068570215342
HO-113
1 50466U 21131B   25279.57655729  .00001022  00000-0  33198-3 0  9992
2 50466  98.5075   8.3375 0005064 131.4238 228.7387 14.40973648198584
SNUGLITE 2
1 52899U 22065F   25279.46659774  .00002056  00000-0  40524-3 0  9992
2 52899  98.1861  60.4193 0008692  99.8303 260.3881 14.63551164173878
UmKA 1 (RS40S)
1 57172U 23091G   25279.48368932  .00007498  00000-0  38367-3 0  9993
2 57172  97.5453 334.2656 0012316 284.0064  75.9799 15.16858938125494
CubeBel-2 (EU11S)
1 57175U 23091K   25279.50125385  .00012460  00000-0  55125-3 0  9998
2 57175  97.5450 336.2216 0009998 288.9230  71.0921 15.21777635125627
ENSO
1 58470U 23185J   25279.21190108  .00226283  00000-0  12500-2 0  9993
2 58470  97.3583 359.4701 0003565 314.7744  45.3232 15.78998950103575
SONATE-2
1 59112U 24043Q   25279.32377934  .00026328  00000-0  64910-3 0  9998
2 59112  97.5283  53.3298 0010331  51.3957 308.8213 15.40480949 88580
MO-122
1 60209U 24125G   25279.49662613  .00026052  00000-0  62668-3 0  9999
2 60209  97.2628 130.0495 0018349  70.7638 289.5593 15.41103439 70235
GRBBeta
1 60237U 24128C   25279.54767363  .00005791  00000-0  41936-3 0  9999
2 60237  61.9930  24.4389 0056836  82.5515 278.2030 15.03830928 68085
Curium One
1 60242U 24128H   25279.49333229  .00010276  00000-0  66786-3 0  9993
2 60242  61.9827  20.9545 0056543  79.0876 281.6572 15.07204822 68145
ROBUSTA-3A
1 60243U 24128J   25279.46976712  .00009525  00000-0  63038-3 0  9993
2 60243  61.9899  22.2919 0056284  76.5792 284.1566 15.06618971 68128
CatSat
1 60246U 24125J   25279.37762527  .00027401  00000-0  79207-3 0  9998
2 60246  97.2446 127.7347 0039345  32.4856 327.8797 15.34814278 68173
HYPERVIEW-1G (RS66S)
1 61772U 24199AP  25279.55431199  .00033340  00000-0  79518-3 0  9996
2 61772  97.3318 148.4521 0013826 119.1088 241.1544 15.41390716 95247
AO-123
1 61781U 24199AY  25279.54954384  .00009811  00000-0  33720-3 0  9992
2 61781  97.3344 145.7938 0016581 130.7268 229.5416 15.30172099 95066
ZIMSAT 2
1 61783U 24199BA  25279.55872800  .00078788  00000-0  12683-2 0  9990
2 61783  97.3259 150.3413 0012750 111.2784 248.9832 15.52607676 98523
HADES-R (SO-124)
1 62690U 25009CK  25276.18745340  .00145426  00000-0  35702-2 0  9994
2 62690  97.3995 357.1923 0001264  42.1528 317.9815 15.40110564 39869
HYDRA-T
1 62692U 25009CM  25276.21012960  .00151842  00000-0  36553-2 0  9999
2 62692  97.3998 357.3139 0001103  26.7154 333.4148 15.40681155 39872
JINJUSat 1B
1 63210U 25052A   25279.20864616  .00015720  00000-0  65628-3 0  9999
2 63210  97.4239 171.9271 0001497 263.8149  96.2918 15.23734519 31290
NUSHSAT 1
1 63211U 25052B   25279.24020054  .00017996  00000-0  73716-3 0  9998
2 63211  97.4231 172.0093 0001335 279.4030  80.7056 15.24346366 31303
TEVEL2-4
1 63213U 25052D   25279.21617850  .00016527  00000-0  68685-3 0  9991
2 63213  97.4144 171.6678 0001236 340.2701  19.8488 15.23877136 31297
TEVEL2-5
1 63214U 25052E   25278.95639551  .00018498  00000-0  76945-3 0  9991
2 63214  97.4140 171.4049 0001297 340.9931  19.1257 15.23821647 31252
TEVEL2-6
1 63215U 25052F   25279.42133959  .00016547  00000-0  68932-3 0  9996
2 63215  97.4143 171.8562 0001262 339.3881  20.7305 15.23795608 31325
TEVEL2-1
1 63217U 25052H   25279.18825986  .00017014  00000-0  71448-3 0  9995
2 63217  97.4127 171.4900 0002079 351.8373   8.2830 15.23516538 31285
TEVEL2-3
1 63218U 25052J   25279.45089860  .00017670  00000-0  74143-3 0  9992
2 63218  97.4127 171.7521 0002107 352.8025   7.3181 15.23536549 31323
TEVEL2-2
1 63219U 25052K   25279.45173244  .00017830  00000-0  74838-3 0  9992
2 63219  97.4127 171.7504 0002112 353.9087   6.2124 15.23523043 31321
TEVEL2-9
1 63237U 25052AD  25279.22087437  .00015283  00000-0  66776-3 0  9997
2 63237  97.4184 171.3160 0006317 338.9890  21.1086 15.22176969 31260
TEVEL2-7
1 63238U 25052AE  25279.22918549  .00015411  00000-0  67534-3 0  9991
2 63238  97.4188 171.3095 0006427 338.8083  21.2886 15.22073774 31266
TEVEL2-8
1 63239U 25052AF  25279.23359594  .00015388  00000-0  67494-3 0  9990
2 63239  97.4194 171.3017 0006432 339.3442  20.7533 15.22043832 31264
HYDRA-W
1 63490U 25052BL  25277.96608586  .00070120  00000-0  23105-2 0  9990
2 63490  97.4123 171.3174 0007802 338.5542  21.5371 15.31173093 31164
HADES-ICM (SO-125)
1 63492U 25052BN  25278.22530882  .00051026  00000-0  17363-2 0  9998
2 63492  97.4143 171.4462 0008458 340.4559  19.6357 15.30220116 31190
